Flag for Germany Weather past 2 weeks in Greven, North Rhine-Westphalia, Germany

54 °F

Light rain. Fog.

Feels Like: 53 °F
Forecast: 42 / 54 °F
Wind: 3 mph from West

Location: Muenster / Osnabrueck

Current Time: Oct 9, 2015 at 4:22:53 AM

Latest Report: Oct 9, 2015 at 3:50 AM

Visibility: 2 mi

Pressure: 30.15 "Hg

Humidity: 94%

Dew point: 52 °F

Location of GrevenLocation

Historic Weather in Greven — Graph


Greven temperature yesterday

Maximum temperature yesterday: 57 °F (at 12:20 AM)
Minimum temperature yesterday: 54 °F (at 11:20 PM)
Average temperature yesterday: 56 °F

Past Weeks' High & Low Weather Summary

High66 °F (Oct 3, 4:50 PM)100% (Sep 25, 2:50 AM)30.66 "Hg (Sep 25, 2:50 AM)
Low34 °F (Oct 2, 7:20 AM)39% (Oct 2, 2:20 PM)29.59 "Hg (Oct 6, 7:20 AM)
Average54 °F83%30.20 "Hg
* Reported Sep 24 3:20 AM — Oct 9 3:20 AM, Greven, Weather by CustomWeather, © 2015

Note: Actual official high and low records may vary slightly from our data, if they occured in-between our weather recording intervals... More about our weather records


Greven weather history for previous 24 hours

Time TempWeatherWind HumidityBarometerVisibility
3:20 AM
Fri, Oct 9
54 °FLight rain. Fog.3 mph94%30.15 "Hg2 mi
2:50 AM54 °FLight rain. Fog.6 mph94%30.15 "Hg2 mi
2:20 AM54 °FLight rain. Fog.6 mph94%30.15 "Hg2 mi
1:50 AM54 °FLight rain. Overcast.5 mph100%30.15 "Hg4 mi
1:20 AM54 °FLight rain. Overcast.3 mph100%30.15 "HgN/A
12:50 AM54 °FOvercast.2 mph94%30.15 "Hg6 mi
12:20 AM54 °FOvercast.3 mph94%30.15 "HgN/A
11:20 PM
Thu, Oct 8
54 °FPassing clouds.3 mph94%30.15 "HgN/A
10:50 PM55 °FPassing clouds.5 mph88%30.15 "HgN/A
10:20 PM55 °FLight rain. Partly cloudy.6 mph88%30.15 "HgN/A
9:50 PM55 °FPassing clouds.6 mph94%30.15 "HgN/A
9:20 PM55 °FPartly cloudy.7 mph94%30.15 "HgN/A
8:50 PM55 °FPartly cloudy.7 mph94%30.15 "HgN/A
8:20 PM55 °FPassing clouds.5 mph100%30.15 "Hg6 mi
7:50 PM55 °FPartly sunny.3 mph94%30.15 "HgN/A
7:20 PM55 °FBroken clouds.3 mph100%30.12 "Hg6 mi
6:50 PM57 °FBroken clouds.3 mph94%30.12 "HgN/A
6:20 PM57 °FPartly sunny.6 mph94%30.12 "HgN/A
5:50 PM57 °FBroken clouds.7 mph94%30.12 "Hg4 mi
5:20 PM57 °FFog.6 mph94%30.12 "Hg3 mi
4:50 PM57 °FPartly sunny.6 mph94%30.12 "Hg4 mi
4:20 PM57 °FBroken clouds.7 mph94%30.12 "Hg4 mi
3:50 PM57 °FBroken clouds.6 mph94%30.12 "Hg4 mi
3:20 PM57 °FPartly sunny.7 mph94%30.12 "Hg4 mi
2:50 PM57 °FPartly sunny.6 mph94%30.09 "Hg4 mi
2:20 PM57 °FBroken clouds.5 mph94%30.09 "Hg4 mi
1:50 PM57 °FDrizzle. Partly sunny.5 mph94%30.09 "Hg4 mi
1:20 PM57 °FDrizzle. Partly sunny.7 mph94%30.09 "Hg4 mi
12:50 PM57 °FDrizzle. Partly sunny.6 mph94%30.09 "Hg4 mi
12:20 PM57 °FDrizzle. Fog.8 mph94%30.09 "Hg3 mi
11:50 AM57 °FDrizzle. Fog.6 mph94%30.09 "Hg1 mi
11:20 AM57 °FDrizzle. Fog.6 mph94%30.07 "Hg2 mi
10:50 AM55 °FDrizzle. Fog.7 mph100%30.07 "Hg3 mi
10:20 AM55 °FDrizzle. Low clouds.6 mph100%30.07 "Hg4 mi
9:50 AM55 °FDrizzle. Low clouds.5 mph94%30.07 "Hg4 mi
9:20 AM55 °FDrizzle. Fog.5 mph94%30.04 "Hg2 mi
8:50 AM55 °FDrizzle. Fog.6 mph94%30.04 "Hg2 mi
8:20 AM55 °FDrizzle. Fog.6 mph94%30.04 "Hg1 mi
7:50 AM55 °FDrizzle. Fog.6 mph94%30.04 "Hg1 mi
7:20 AM55 °FDrizzle. Fog.7 mph94%30.01 "Hg1 mi
6:50 AM55 °FDrizzle. Fog.8 mph94%30.01 "Hg1 mi
6:20 AM55 °FDrizzle. Fog.7 mph94%30.01 "Hg2 mi
5:20 AM55 °FPassing clouds.6 mph94%30.01 "Hg4 mi
4:50 AM55 °FPassing clouds.7 mph100%30.01 "Hg4 mi
4:20 AM55 °FPassing clouds.8 mph100%29.98 "Hg4 mi
Weather by CustomWeather, © 2015

See weather overviewHow to use our weather pages